CW3577 Weather Reports


Display with metric or nautical units.
time (UTC)temp
F
wind
direction
speed
MPH
gust
MPH
rain 1hr
in
rain 24hr
in
rain mn
in
humidity
%
barometer
mb
20260906090043 59 42 0.0 2.0 0.05 0.11 0.08 93 1014.4
20260906084625 59 53 1.0 4.0 0.05 0.11 0.08 93 1014.5
20260906083040 60 38 1.0 3.0 0.04 0.10 0.07 93 1014.4
20260906081601 60 59 0.0 3.0 0.03 0.09 0.06 94 1014.3
20260906080017 60 360 1.0 3.0 0.00 0.06 0.03 94 1014.2
20260906074559 61 319 0.0 2.0 0.01 0.06 0.03 94 1013.8
20260906073016 61 319 0.0 2.0 0.02 0.06 0.03 94 1013.9
20260906071558 61 319 0.0 2.0 0.02 0.06 0.03 94 1013.7
20260906070017 61 318 1.0 2.0 0.02 0.06 0.03 94 1013.7
20260906064550 61 319 2.0 4.0 0.01 0.05 0.02 93 1013.7
20260906063008 61 321 0.0 2.0 0.00 0.04 0.01 93 1013.7
20260906061604 61 323 0.0 3.0 0.00 0.04 0.01 93 1013.7
20260906060006 61 315 1.0 3.0 0.01 0.04 0.01 93 1013.9
20260906054548 61 324 1.0 3.0 0.01 0.04 0.01 93 1013.7
20260906053110 61 312 0.0 0.0 0.01 0.04 0.01 93 1013.7
20260906051541 61 312 0.0 1.0 0.01 0.04 0.01 93 1013.9
20260906050055 61 312 0.0 3.0 0.00 0.03 0.00 92 1013.9
20260906044503 61 312 0.0 4.0 0.00 0.03 0.00 92 1013.9
20260906043052 62 302 0.0 5.0 0.00 0.03 0.00 92 1013.9
20260906041604 62 342 1.0 3.0 0.01 0.03 0.00 92 1013.9
20260906040008 62 28 1.0 3.0 0.01 0.03 0.03 92 1013.9
20260906034520 62 78 0.0 1.0 0.01 0.03 0.03 92 1013.7
20260906033105 62 78 0.0 1.0 0.01 0.03 0.03 92 1013.6
20260906031512 62 78 0.0 1.0 0.00 0.02 0.02 92 1013.5
20260906030058 62 78 0.0 2.0 0.00 0.02 0.02 92 1013.6
20260906024506 62 78 0.0 0.0 0.01 0.02 0.02 91 1013.6
20260906023103 63 78 0.0 1.0 0.01 0.02 0.02 91 1013.5
20260906021502 63 78 0.0 1.0 0.01 0.02 0.02 91 1013.5
20260906020050 63 78 0.0 0.0 0.01 0.02 0.02 90 1013.3
20260906014524 63 78 0.0 1.0 0.00 0.01 0.01 90 1013.5
20260906013042 63 78 0.0 2.0 0.00 0.01 0.01 89 1013.6
20260906011501 63 78 0.0 2.0 0.01 0.01 0.01 89 1013.7
20260906010057 64 78 0.0 2.0 0.01 0.01 0.01 88 1013.6
20260906004557 64 78 0.0 1.0 0.01 0.01 0.01 87 1013.3
20260906003016 64 78 0.0 0.0 0.01 0.01 0.01 86 1013.2
20260906001615 64 78 0.0 2.0 0.00 0.00 0.00 84 1013.2
20260906000013 65 78 0.0 2.0 0.00 0.00 0.00 82 1013.1
20260905234558 65 78 0.0 1.0 0.00 0.00 0.00 81 1013.1
20260905233007 65 78 0.0 2.0 0.00 0.00 0.00 80 1012.9
20260905231552 65 78 1.0 3.0 0.00 0.00 0.00 80 1012.7
20260905230122 66 78 0.0 3.0 0.00 0.00 0.00 79 1012.6
20260905224542 66 78 0.0 4.0 0.00 0.00 0.00 78 1012.5
20260905223056 66 74 1.0 4.0 0.00 0.00 0.00 78 1012.3
20260905221515 66 122 0.0 2.0 0.00 0.00 0.00 79 1012.3
20260905220050 66 122 0.0 0.0 0.00 0.00 0.00 79 1012.3
20260905214604 66 104 1.0 3.0 0.00 0.00 0.00 78 1012.0
20260905213018 66 92 1.0 10.0 0.00 0.00 0.00 78 1011.8
20260905211548 66 94 3.0 10.0 0.00 0.00 0.00 77 1011.7
20260905210104 66 103 2.0 9.0 0.00 0.00 0.00 78 1011.5
20260905204504 68 59 8.0 18.0 0.00 0.00 0.00 75 1011.5
20260905203038 70 88 1.0 8.0 0.00 0.00 0.00 72 1011.0
20260905201608 70 105 3.0 10.0 0.00 0.00 0.00 71 1011.0
20260905200020 72 81 4.0 11.0 0.00 0.00 0.00 69 1010.6
20260905194605 73 197 3.0 9.0 0.00 0.00 0.00 69 1010.6
20260905193021 72 92 3.0 8.0 0.00 0.00 0.00 71 1010.6
20260905191557 73 167 2.0 11.0 0.00 0.00 0.00 71 1010.6
20260905190005 71 130 3.0 10.0 0.00 0.00 0.00 73 1010.8
20260905184551 70 136 1.0 6.0 0.00 0.00 0.00 74 1010.8
20260905183115 71 134 2.0 7.0 0.00 0.00 0.00 71 1010.7
20260905181545 72 58 4.0 9.0 0.00 0.00 0.00 71 1010.7
20260905180005 71 109 3.0 12.0 0.00 0.00 0.00 71 1010.7
20260905174540 72 56 1.0 9.0 0.00 0.00 0.00 67 1010.6
20260905173002 72 100 3.0 8.0 0.00 0.00 0.00 67 1010.5
20260905171536 74 83 2.0 8.0 0.00 0.00 0.00 64 1010.4
20260905170009 72 66 2.0 5.0 0.00 0.00 0.00 68 1010.5
20260905164529 71 87 2.0 6.0 0.00 0.00 0.00 68 1010.6
20260905163104 71 33 2.0 8.0 0.00 0.00 0.00 69 1010.5
20260905161533 72 72 2.0 10.0 0.00 0.00 0.00 67 1010.5
20260905160004 72 26 2.0 10.0 0.00 0.00 0.00 71 1010.6
20260905154527 72 55 2.0 11.0 0.00 0.00 0.00 71 1010.5
20260905153012 74 84 2.0 7.0 0.00 0.00 0.00 69 1010.6
20260905151536 72 60 4.0 8.0 0.00 0.00 0.00 71 1010.7
20260905150056 72 78 2.0 6.0 0.00 0.00 0.00 71 1010.7
20260905144501 70 317 3.0 9.0 0.00 0.00 0.00 74 1010.7
20260905143023 69 355 1.0 6.0 0.00 0.00 0.00 77 1010.8
20260905141547 69 355 0.0 4.0 0.00 0.00 0.00 78 1010.8
20260905140006 69 360 1.0 6.0 0.00 0.00 0.00 78 1010.9
20260905134555 68 318 2.0 8.0 0.00 0.00 0.00 79 1010.7
20260905133020 67 327 1.0 8.0 0.00 0.00 0.00 81 1010.6
20260905131558 67 345 2.0 8.0 0.00 0.00 0.00 82 1010.4
20260905130012 66 360 2.0 5.0 0.00 0.00 0.00 83 1010.3
20260905124545 66 344 2.0 5.0 0.00 0.00 0.00 84 1010.3
20260905123003 65 13 2.0 8.0 0.00 0.00 0.00 85 1010.0
20260905121550 64 344 2.0 6.0 0.00 0.00 0.00 87 1009.8
20260905120007 63 313 2.0 4.0 0.00 0.00 0.00 92 1009.9
20260905114553 61 313 0.0 2.0 0.00 0.00 0.00 94 1009.6
20260905113109 61 5 0.0 3.0 0.00 0.00 0.00 94 1009.6
20260905111536 60 306 2.0 5.0 0.00 0.00 0.00 95 1009.5
20260905110101 59 24 1.0 3.0 0.00 0.00 0.00 94 1009.4
20260905104520 58 47 0.0 2.0 0.00 0.00 0.00 94 1009.4
20260905103058 58 68 0.0 2.0 0.00 0.00 0.00 94 1009.3
20260905101517 58 68 0.0 1.0 0.00 0.00 0.00 94 1009.2
20260905100117 58 68 0.0 3.0 0.00 0.00 0.00 94 1009.2
20260905094510 57 292 0.0 1.0 0.00 0.00 0.00 94 1009.0
20260905093056 57 292 0.0 1.0 0.00 0.00 0.00 93 1009.0
20260905091504 57 292 0.0 0.0 0.00 0.00 0.00 93 1009.0